Regional Weather Roundup
Issued by NWS

Home | Current Version | Previous Version | Graphics & Text | Print | Product List | Glossary On
Versions: 1 2 3 4 5 6 7 8 9 10 11 12 13 14 15 16 17 18 19 20 21 22 23 24 25 26 27 28 29 30 31 32 33 34 35 36 37 38 39 40 41 42 43 44 45 46 47 48 49 50
840
ASUS43 KLOT 270408
RWRIL

ILLINOIS REGIONAL WEATHER ROUNDUP
NATIONAL WEATHER SERVICE CHICAGO/ROMEOVILLE IL
1100 PM CDT MON SEP 26 2016

NOTE: "FAIR" INDICATES FEW OR NO CLOUDS BELOW 12,000 FEET WITH NO
SIGNIFICANT WEATHER AND/OR OBSTRUCTIONS TO VISIBILITY.

* THESE STATIONS ARE NOT UNDER NWS QUALITY CONTROL. THEY ALSO MAY NOT
  REPORT WEATHER SUCH AS PRECIPITATION OR FOG.

ILZ001-002-007-009-015-016-024-270500-
NORTHWEST ILLINOIS

CITY           SKY/WX    TMP DP  RH WIND       PRES   REMARKS
MOLINE         CLEAR     56  41  57 W7        29.97F
STERLING*      PTCLDY    52  42  69 SW5       29.95F
SAVANNA*       PTCLDY    59  42  52 W7        29.94S
$$

ILZ003-004-008-010-011-017-018-270500-
NORTH CENTRAL ILLINOIS

CITY           SKY/WX    TMP DP  RH WIND       PRES   REMARKS
ROCKFORD       CLEAR     56  37  49 SW7       29.94F
FREEPORT*      PTCLDY    52  38  60 SW8       29.94F
ROCHELLE*      CLEAR     48  41  76 SW7       29.94F
DE KALB*       CLEAR     55  38  53 SW9       29.94F
$$

ILZ005-006-012>014-019>023-270500-
NORTHEAST ILLINOIS

CITY           SKY/WX    TMP DP  RH WIND       PRES   REMARKS
CHICAGO-OHARE  CLEAR     57  35  43 SW7       29.92F
CHICAGO-MIDWAY CLEAR     60  35  39 SW8       29.93F
AURORA         CLEAR     54  39  57 SW7       29.94F
LANSING*       CLEAR     54  41  60 SW6       29.95F
JOLIET*        CLEAR     57  40  52 SW3       29.95F
WAUKEGAN       CLEAR     57  37  47 VRB5      29.88F
DUPAGE AIRPORT CLEAR     54  37  52 SW10      29.92F
KANKAKEE*      CLEAR     50  40  70 SW7       29.98F
WHEELING       CLEAR     59  34  39 SW6       29.92F
MORRIS*        CLEAR     54  39  57 CALM      29.95F
ROMEOVILLE*    CLEAR     55  41  59 SW7       29.95F
NORTHERLY ISL    N/A     62  33  33 SW6         N/A
$$

LMZ740>746-270500-
SOUTHERN LAKE MICHIGAN

STATION/POSITION SKY/WX   TEMP    WIND        PRES    VSBY  WAVE
                          AIR SEA DIR/SP/G                  HT/PER
                          (F)     (DEG/KT/KT) (MB)    (MI)  (FT/S)
SOUTHERN BUOY              66 71  260/ 21/ 25 1010.3F         5/ 5
WILMETTE HARBOR            62 62  270/ 14/ 17   N/A           1/ 2
HARRISON CRIB              66     250/ 16/ 19   N/A
BURNHAM HARBOR             62     220/  8/  9   N/A
CALUMET HARBOR             62     210/  6/  9 1013.6F
BURNS HARBOR               62     220/  9/ 13 1014.6F
MICHIGAN CITY              63     190/ 14/ 16   N/A
MICHIGAN CITY 6N           65 67  240/ 16/ 19   N/A           4/ 4
ST. JOSEPH                 67 64  250/ 19/ 25 1012.7F         7/ 6
$$

ILZ025>027-034>036-040-047-049-050-058-095>099-270500-
WEST-CENTRAL ILLINOIS

CITY           SKY/WX    TMP DP  RH WIND       PRES   REMARKS
QUINCY         CLEAR     55  45  68 SW6       30.05F
GALESBURG*       N/A    N/A N/A N/A MISG        N/A
MACOMB*        CLEAR     55  43  65 W7        30.04F
JACKSONVILLE*  CLEAR     56  43  61 SW7       30.05F
PITTSFIELD*    CLEAR     59  45  58 SW6       30.07F
$$

ILZ028>032-037-038-041>044-048-051>054-059>061-270500-
CENTRAL ILLINOIS

CITY           SKY/WX    TMP DP  RH WIND       PRES   REMARKS
PONTIAC        CLEAR     56  43  61 SW8       29.99F
BLOOMINGTON    CLEAR     57  39  51 SW9       30.02F
DECATUR        CLEAR     57  40  52 SW9       30.05S
PEORIA         CLEAR     56  43  61 SW6       30.00F
LACON*         CLEAR     53  42  65 SW3       29.98F
LINCOLN*       CLEAR     58  42  55 SW3       30.03S
SPRINGFIELD    CLEAR     55  42  61 SW5       30.05F
TAYLORVILLE    CLEAR     52  41  66 SW6       30.06F
$$

ILZ033-039-045-046-055>057-062-063-270500-
EAST-CENTRAL ILLINOIS

CITY           SKY/WX    TMP DP  RH WIND       PRES   REMARKS
CHAMPAIGN      CLEAR     50  41  71 SW7       30.04S
RANTOUL*       CLEAR     54  42  63 SW7       30.02S
MATTOON        CLEAR     57  41  55 SW6       30.05F
PARIS*         CLEAR     53  42  65 SW3       30.06S
$$

ILZ079-100>102-270500-
SOUTHWEST ILLINOIS

CITY           SKY/WX    TMP DP  RH WIND       PRES   REMARKS
BELLEVILLE     CLEAR     53  49  87 CALM      30.08S
CAHOKIA*       CLEAR     53  48  83 CALM      30.09F
SPARTA*        CLEAR     56  48  75 CALM      30.11S
$$

ILZ064>066-069>071-074>076-080>082-084>086-088>090-092>094-270500-
SOUTH-CENTRAL ILLINOIS

CITY           SKY/WX    TMP DP  RH WIND       PRES   REMARKS
CARBONDALE     CLEAR     51  51 100 CALM      30.11S
CAIRO*         CLEAR     53  52  98 CALM      30.11F
EFFINGHAM*     CLEAR     51  50  97 CALM      30.08F
MARION         CLEAR     55  54  94 CALM      30.11S
MT. VERNON     PTCLDY    48  43  81 CALM      30.10S
CENTRALIA*     CLEAR     53  49  89 CALM      30.08F
SALEM*         CLEAR     53  48  83 CALM      30.09S
METROPOLIS*    CLEAR     54  53  99 CALM      30.12S
$$

ILZ067-068-072-073-078-083-087-091-270500-
SOUTHEAST ILLINOIS

CITY           SKY/WX    TMP DP  RH WIND       PRES   REMARKS
LAWRENCEVILLE  CLEAR     56  46  69 CALM      30.08S
FLORA*         CLEAR     51  49  90 CALM      30.09S
FAIRFIELD*       N/A     52  50  93 CALM      30.08F
HARRISBURG*    CLEAR     53  52  97 CALM      30.10F
ROBINSON*      CLEAR     52  46  78 CALM      30.08S
CARMI*         CLEAR     51  51  99 CALM      30.09S
$$

ABBREVIATIONS USED IN REMARKS
   TC - TEMPERATURE IN CELSIUS
  WCI - WIND CHILL INDEX
   HX - HEAT INDEX
  VSB - VISIBILITY
$$





USA.gov is the U.S. government's official web portal to all federal, state and local government web resources and services.